Location: Unspecified
(0.0000°N, 0.0000°E)
Time: 15:21:05
(UTC+00:00)

Envisat - Pass Details

Date: 19 May 2022
Orbit: 764 x 765 km, 98.2° (Epoch: 19 May)

Event Time Altitude Azimuth Distance (km) Brightness Sun altitude
Rises 04:20:56 0° 7° (N) 3,212 6.6 -22.4°
Reaches altitude 10° 04:23:14 10° 5° (N) 2,290 5.8 -21.9°
Maximum altitude 04:28:15 70° 282° (WNW) 811 2.9 -20.7°
Enters shadow 04:30:47 30° 205° (SSW) 1,353 3.9 -20.1°
